| time (UTC) | temp F | wind direction | speed knots | gust knots | rain 1hr in | rain 24hr in | rain mn in | humidity % | barometer mb |
| 20260506131804 | 56 | 350 | 7.0 | 13.0 | 0.00 | 0.00 | 0.00 | 80 | 1010.2 |
| 20260506130904 | 56 | 348 | 7.0 | 12.2 | 0.00 | 0.00 | 0.00 | 80 | 1009.9 |
| 20260506130005 | 56 | 359 | 6.1 | 13.9 | 0.00 | 0.00 | 0.00 | 80 | 1009.9 |
| 20260506125404 | 56 | 351 | 6.1 | 13.9 | 0.00 | 0.00 | 0.00 | 80 | 1009.8 |
| 20260506124525 | 57 | 354 | 6.1 | 14.8 | 0.00 | 0.00 | 0.00 | 80 | 1009.8 |
| 20260506123604 | 57 | 358 | 5.2 | 11.3 | 0.00 | 0.00 | 0.00 | 81 | 1009.7 |
| 20260506122725 | 57 | 353 | 5.2 | 10.4 | 0.00 | 0.00 | 0.00 | 81 | 1009.6 |
| 20260506121804 | 57 | 353 | 6.1 | 9.6 | 0.00 | 0.00 | 0.00 | 81 | 1009.4 |
| 20260506120925 | 57 | 349 | 6.1 | 13.9 | 0.00 | 0.00 | 0.00 | 81 | 1009.3 |
| 20260506120004 | 57 | 352 | 5.2 | 12.2 | 0.00 | 0.00 | 0.00 | 80 | 1009.3 |
| 20260506115404 | 57 | 353 | 5.2 | 9.6 | 0.00 | 0.00 | 0.00 | 80 | 1009.2 |
| 20260506114504 | 58 | 349 | 6.1 | 10.4 | 0.00 | 0.00 | 0.00 | 80 | 1009.2 |
| 20260506113604 | 58 | 342 | 5.2 | 10.4 | 0.00 | 0.00 | 0.00 | 80 | 1008.9 |
| 20260506112704 | 58 | 352 | 5.2 | 11.3 | 0.00 | 0.00 | 0.00 | 80 | 1008.8 |
| 20260506111804 | 59 | 346 | 6.1 | 12.2 | 0.00 | 0.00 | 0.00 | 80 | 1008.6 |
| 20260506110925 | 59 | 348 | 6.1 | 13.9 | 0.00 | 0.00 | 0.00 | 80 | 1008.4 |
| 20260506110004 | 59 | 350 | 5.2 | 12.2 | 0.00 | 0.00 | 0.00 | 80 | 1008.2 |
| 20260506105404 | 60 | 354 | 5.2 | 12.2 | 0.00 | 0.00 | 0.00 | 80 | 1008.2 |
| 20260506104504 | 60 | 348 | 5.2 | 8.7 | 0.00 | 0.00 | 0.00 | 80 | 1008.0 |
| 20260506103604 | 60 | 351 | 5.2 | 9.6 | 0.00 | 0.00 | 0.00 | 80 | 1007.9 |
| 20260506102704 | 60 | 356 | 5.2 | 10.4 | 0.00 | 0.00 | 0.00 | 80 | 1007.6 |
| 20260506101804 | 60 | 350 | 5.2 | 10.4 | 0.00 | 0.00 | 0.00 | 80 | 1007.5 |
| 20260506100904 | 61 | 347 | 5.2 | 12.2 | 0.00 | 0.00 | 0.00 | 80 | 1007.4 |
| 20260506100004 | 61 | 350 | 4.3 | 11.3 | 0.00 | 0.00 | 0.00 | 80 | 1007.2 |
| 20260506095404 | 61 | 350 | 4.3 | 8.7 | 0.00 | 0.00 | 0.00 | 80 | 1007.2 |
| 20260506094504 | 61 | 352 | 4.3 | 9.6 | 0.00 | 0.00 | 0.00 | 80 | 1006.9 |
| 20260506093604 | 62 | 349 | 4.3 | 8.7 | 0.00 | 0.00 | 0.00 | 81 | 1006.9 |
| 20260506092704 | 62 | 353 | 4.3 | 8.7 | 0.00 | 0.00 | 0.00 | 81 | 1006.9 |
| 20260506091804 | 62 | 356 | 3.5 | 7.8 | 0.00 | 0.00 | 0.00 | 81 | 1007.0 |
| 20260506090925 | 62 | 354 | 4.3 | 7.8 | 0.00 | 0.00 | 0.00 | 81 | 1007.0 |
| 20260506090004 | 62 | 352 | 4.3 | 7.8 | 0.00 | 0.00 | 0.00 | 81 | 1007.0 |
| 20260506085404 | 62 | 351 | 4.3 | 8.7 | 0.00 | 0.00 | 0.00 | 80 | 1006.9 |
| 20260506084525 | 63 | 354 | 3.5 | 8.7 | 0.00 | 0.00 | 0.00 | 80 | 1006.8 |
| 20260506083604 | 63 | 353 | 3.5 | 8.7 | 0.00 | 0.00 | 0.00 | 80 | 1006.7 |
| 20260506082704 | 63 | 18 | 3.5 | 7.8 | 0.00 | 0.00 | 0.00 | 81 | 1006.6 |
| 20260506081804 | 63 | 26 | 3.5 | 8.7 | 0.00 | 0.00 | 0.00 | 80 | 1006.5 |
| 20260506080903 | 63 | 24 | 3.5 | 7.0 | 0.00 | 0.00 | 0.00 | 80 | 1006.5 |
| 20260506072704 | 64 | 13 | 3.5 | 7.8 | 0.00 | 0.00 | 0.00 | 80 | 1006.4 |
| 20260506071804 | 64 | 7 | 4.3 | 8.7 | 0.00 | 0.00 | 0.00 | 79 | 1006.3 |
| 20260506070903 | 64 | 4 | 4.3 | 9.6 | 0.00 | 0.00 | 0.00 | 79 | 1006.4 |
| 20260506061804 | 65 | 2 | 4.3 | 9.6 | 0.00 | 0.00 | 0.00 | 78 | 1006.3 |
| 20260506060904 | 66 | 1 | 5.2 | 11.3 | 0.00 | 0.00 | 0.00 | 78 | 1006.2 |
| 20260506050905 | 68 | 6 | 4.3 | 9.6 | 0.00 | 0.00 | 0.00 | 76 | 1006.0 |
| 20260506044504 | 69 | 6 | 4.3 | 11.3 | 0.00 | 0.00 | 0.00 | 74 | 1006.0 |
| 20260506043604 | 69 | 7 | 6.1 | 11.3 | 0.00 | 0.00 | 0.00 | 74 | 1006.0 |
| 20260506042704 | 70 | 5 | 5.2 | 9.6 | 0.00 | 0.00 | 0.00 | 73 | 1005.8 |
| 20260506041804 | 70 | 358 | 5.2 | 9.6 | 0.00 | 0.00 | 0.00 | 72 | 1005.9 |
| 20260506040925 | 70 | 359 | 4.3 | 9.6 | 0.00 | 0.00 | 0.00 | 72 | 1005.8 |
| 20260506040004 | 71 | 350 | 6.1 | 12.2 | 0.00 | 0.00 | 0.00 | 71 | 1005.8 |
| 20260506035404 | 72 | 353 | 5.2 | 11.3 | 0.00 | 0.00 | 0.00 | 72 | 1005.7 |
| 20260506034504 | 72 | 360 | 5.2 | 10.4 | 0.00 | 0.00 | 0.00 | 72 | 1005.3 |
| 20260506033604 | 72 | 16 | 4.3 | 10.4 | 0.00 | 0.00 | 0.00 | 72 | 1004.9 |
| 20260506032704 | 73 | 19 | 5.2 | 8.7 | 0.00 | 0.00 | 0.00 | 71 | 1004.8 |
| 20260506031804 | 73 | 27 | 6.1 | 11.3 | 0.00 | 0.00 | 0.00 | 71 | 1004.6 |
| 20260506030904 | 74 | 23 | 5.2 | 10.4 | 0.00 | 0.00 | 0.00 | 70 | 1004.4 |
| 20260506030004 | 75 | 360 | 6.1 | 12.2 | 0.00 | 0.00 | 0.00 | 69 | 1004.6 |
| 20260506025404 | 75 | 2 | 5.2 | 12.2 | 0.00 | 0.00 | 0.00 | 69 | 1004.7 |
| 20260506024504 | 76 | 15 | 5.2 | 11.3 | 0.00 | 0.00 | 0.00 | 69 | 1004.3 |
| 20260506023603 | 77 | 354 | 6.1 | 11.3 | 0.00 | 0.00 | 0.00 | 68 | 1003.9 |
| 20260506022725 | 78 | 352 | 5.2 | 10.4 | 0.00 | 0.00 | 0.00 | 68 | 1003.8 |
| 20260506021804 | 78 | 347 | 3.5 | 9.6 | 0.00 | 0.00 | 0.00 | 67 | 1003.4 |
| 20260506020904 | 79 | 352 | 3.5 | 8.7 | 0.00 | 0.00 | 0.00 | 68 | 1003.2 |
| 20260506020025 | 80 | 355 | 3.5 | 7.0 | 0.00 | 0.00 | 0.00 | 68 | 1002.8 |
| 20260506015404 | 80 | 11 | 1.7 | 7.0 | 0.00 | 0.00 | 0.00 | 68 | 1002.7 |
| 20260506014524 | 81 | 153 | 0.9 | 3.5 | 0.00 | 0.00 | 0.00 | 76 | 1002.5 |
| 20260506013604 | 81 | 184 | 0.0 | 1.7 | 0.00 | 0.00 | 0.00 | 76 | 1002.5 |
| 20260506012703 | 81 | 179 | 0.9 | 4.3 | 0.00 | 0.00 | 0.00 | 76 | 1002.3 |
| 20260506011804 | 81 | 161 | 1.7 | 7.0 | 0.00 | 0.00 | 0.00 | 76 | 1002.2 |
| 20260506010903 | 82 | 170 | 2.6 | 8.7 | 0.00 | 0.00 | 0.00 | 75 | 1002.2 |
| 20260506010004 | 82 | 310 | 1.7 | 6.1 | 0.00 | 0.00 | 0.00 | 75 | 1002.0 |
| 20260506005404 | 82 | 251 | 2.6 | 7.0 | 0.00 | 0.00 | 0.00 | 75 | 1001.7 |
| 20260506004504 | 82 | 181 | 2.6 | 7.0 | 0.00 | 0.00 | 0.00 | 75 | 1001.6 |
| 20260506003604 | 82 | 168 | 5.2 | 10.4 | 0.00 | 0.00 | 0.00 | 74 | 1001.4 |
| 20260506002725 | 83 | 165 | 5.2 | 10.4 | 0.00 | 0.00 | 0.00 | 73 | 1001.2 |
| 20260506001804 | 84 | 170 | 5.2 | 10.4 | 0.00 | 0.00 | 0.00 | 73 | 1001.4 |
| 20260506000924 | 84 | 164 | 5.2 | 12.2 | 0.00 | 0.00 | 0.00 | 72 | 1001.3 |
| 20260506000004 | 84 | 163 | 5.2 | 10.4 | 0.00 | 0.00 | 0.00 | 71 | 1001.0 |
| 20260505235404 | 84 | 163 | 5.2 | 9.6 | 0.00 | 0.00 | 0.00 | 71 | 1001.1 |
| 20260505234504 | 84 | 165 | 5.2 | 10.4 | 0.00 | 0.00 | 0.00 | 71 | 1001.2 |
| 20260505233603 | 85 | 163 | 4.3 | 10.4 | 0.00 | 0.00 | 0.00 | 71 | 1001.3 |
| 20260505232725 | 85 | 160 | 5.2 | 10.4 | 0.00 | 0.00 | 0.00 | 70 | 1001.2 |
| 20260505231804 | 86 | 159 | 6.1 | 12.2 | 0.00 | 0.00 | 0.00 | 70 | 1001.0 |
| 20260505230904 | 86 | 166 | 5.2 | 12.2 | 0.00 | 0.00 | 0.00 | 69 | 1001.0 |
| 20260505230004 | 86 | 163 | 5.2 | 12.2 | 0.00 | 0.00 | 0.00 | 70 | 1000.9 |
| 20260505225404 | 86 | 165 | 5.2 | 12.2 | 0.00 | 0.00 | 0.00 | 69 | 1000.9 |
| 20260505224504 | 87 | 158 | 5.2 | 10.4 | 0.00 | 0.00 | 0.00 | 69 | 1001.0 |
| 20260505223604 | 87 | 156 | 6.1 | 12.2 | 0.00 | 0.00 | 0.00 | 67 | 1000.9 |
| 20260505222704 | 88 | 161 | 6.1 | 12.2 | 0.00 | 0.00 | 0.00 | 66 | 1000.7 |
| 20260505221824 | 90 | 165 | 4.3 | 9.6 | 0.00 | 0.00 | 0.00 | 62 | 1000.6 |
| 20260505220904 | 89 | 166 | 4.3 | 9.6 | 0.00 | 0.00 | 0.00 | 59 | 1000.7 |
| 20260505220004 | 90 | 172 | 4.3 | 9.6 | 0.00 | 0.00 | 0.00 | 57 | 1000.6 |
| 20260505215425 | 90 | 181 | 4.3 | 8.7 | 0.00 | 0.00 | 0.00 | 58 | 1000.8 |
| 20260505214504 | 90 | 171 | 3.5 | 9.6 | 0.00 | 0.00 | 0.00 | 59 | 1000.8 |
| 20260505213624 | 90 | 180 | 4.3 | 10.4 | 0.00 | 0.00 | 0.00 | 59 | 1000.7 |
| 20260505212703 | 90 | 181 | 4.3 | 9.6 | 0.00 | 0.00 | 0.00 | 59 | 1000.7 |
| 20260505211824 | 90 | 172 | 5.2 | 11.3 | 0.00 | 0.00 | 0.00 | 60 | 1000.9 |
| 20260505210903 | 91 | 173 | 4.3 | 11.3 | 0.00 | 0.00 | 0.00 | 60 | 1001.0 |
| 20260505210025 | 90 | 198 | 4.3 | 10.4 | 0.00 | 0.00 | 0.00 | 60 | 1001.3 |
| 20260505205404 | 90 | 184 | 5.2 | 10.4 | 0.00 | 0.00 | 0.00 | 60 | 1001.4 |
| 20260505204504 | 90 | 169 | 4.3 | 10.4 | 0.00 | 0.00 | 0.00 | 60 | 1001.3 |
| 20260505203604 | 90 | 189 | 5.2 | 10.4 | 0.00 | 0.00 | 0.00 | 60 | 1001.4 |
| 20260505202725 | 90 | 193 | 4.3 | 10.4 | 0.00 | 0.00 | 0.00 | 60 | 1001.7 |
| 20260505201803 | 90 | 173 | 5.2 | 10.4 | 0.00 | 0.00 | 0.00 | 61 | 1001.7 |
| 20260505200904 | 89 | 185 | 5.2 | 12.2 | 0.00 | 0.00 | 0.00 | 62 | 1001.7 |
| 20260505200004 | 88 | 185 | 5.2 | 9.6 | 0.00 | 0.00 | 0.00 | 63 | 1001.7 |
| 20260505195404 | 88 | 178 | 6.1 | 11.3 | 0.00 | 0.00 | 0.00 | 62 | 1001.7 |
| 20260505194504 | 88 | 184 | 5.2 | 11.3 | 0.00 | 0.00 | 0.00 | 63 | 1001.8 |
| 20260505193604 | 88 | 197 | 4.3 | 11.3 | 0.00 | 0.00 | 0.00 | 62 | 1002.0 |
| 20260505192704 | 88 | 190 | 4.3 | 8.7 | 0.00 | 0.00 | 0.00 | 66 | 1002.1 |
| 20260505191803 | 86 | 191 | 5.2 | 9.6 | 0.00 | 0.00 | 0.00 | 65 | 1002.2 |
| 20260505190904 | 86 | 190 | 5.2 | 13.9 | 0.00 | 0.00 | 0.00 | 66 | 1002.2 |
| 20260505190004 | 86 | 189 | 5.2 | 14.8 | 0.00 | 0.00 | 0.00 | 66 | 1002.2 |
| 20260505185403 | 85 | 191 | 6.1 | 14.8 | 0.00 | 0.00 | 0.00 | 67 | 1002.4 |
| 20260505184504 | 85 | 202 | 6.1 | 13.0 | 0.00 | 0.00 | 0.00 | 67 | 1002.5 |
| 20260505183604 | 84 | 193 | 7.0 | 14.8 | 0.00 | 0.00 | 0.00 | 69 | 1002.6 |
| 20260505182703 | 84 | 179 | 6.1 | 14.8 | 0.00 | 0.00 | 0.00 | 69 | 1002.6 |
| 20260505181804 | 84 | 195 | 7.0 | 12.2 | 0.00 | 0.00 | 0.00 | 70 | 1002.7 |
| 20260505180904 | 84 | 196 | 6.1 | 13.0 | 0.00 | 0.00 | 0.00 | 70 | 1002.7 |
| 20260505180004 | 83 | 192 | 7.0 | 16.5 | 0.00 | 0.00 | 0.00 | 70 | 1002.8 |
| 20260505175404 | 83 | 197 | 7.8 | 16.5 | 0.00 | 0.00 | 0.00 | 71 | 1002.9 |
| 20260505174525 | 82 | 194 | 6.1 | 11.3 | 0.00 | 0.00 | 0.00 | 73 | 1002.8 |
| 20260505173603 | 81 | 194 | 7.0 | 14.8 | 0.00 | 0.00 | 0.00 | 73 | 1002.6 |
| 20260505172704 | 81 | 196 | 7.0 | 14.8 | 0.00 | 0.00 | 0.00 | 73 | 1002.6 |
| 20260505171825 | 81 | 189 | 7.0 | 15.6 | 0.00 | 0.00 | 0.00 | 73 | 1002.6 |
| 20260505170903 | 81 | 184 | 6.1 | 13.0 | 0.00 | 0.00 | 0.00 | 74 | 1002.5 |
| 20260505170004 | 80 | 190 | 7.8 | 14.8 | 0.00 | 0.00 | 0.00 | 75 | 1002.6 |
| 20260505165403 | 80 | 191 | 7.8 | 14.8 | 0.00 | 0.00 | 0.00 | 75 | 1002.6 |
| 20260505164525 | 80 | 188 | 7.8 | 22.6 | 0.00 | 0.00 | 0.00 | 75 | 1002.5 |
| 20260505163604 | 80 | 192 | 6.1 | 16.5 | 0.00 | 0.00 | 0.00 | 75 | 1002.5 |
| 20260505162703 | 80 | 196 | 7.0 | 13.0 | 0.00 | 0.00 | 0.00 | 76 | 1002.7 |
| 20260505161804 | 79 | 188 | 7.0 | 17.4 | 0.00 | 0.00 | 0.00 | 76 | 1002.8 |
| 20260505160903 | 79 | 190 | 7.8 | 14.8 | 0.00 | 0.00 | 0.00 | 77 | 1002.8 |
| 20260505152704 | 76 | 187 | 8.7 | 17.4 | 0.00 | 0.00 | 0.00 | 82 | 1002.6 |
| 20260505151804 | 76 | 184 | 7.0 | 15.6 | 0.00 | 0.00 | 0.00 | 82 | 1002.6 |
| 20260505150904 | 76 | 195 | 7.8 | 19.1 | 0.00 | 0.00 | 0.00 | 83 | 1002.8 |